Regional Weather Roundup
Issued by NWS

Home | Current Version | Previous Version | Text Only | Print | Product List | Glossary Off
Versions: 1 2 3 4 5 6 7 8 9 10 11 12 13 14 15 16 17 18 19 20 21 22 23 24 25 26 27 28 29 30 31 32 33 34 35 36 37 38 39 40 41 42 43 44 45 46 47 48 49 50

000
ASUS43 KMPX 300501
RWRMN
WEATHER ROUNDUP FOR MINNESOTA
NATIONAL WEATHER SERVICE TWIN CITIES/CHANHASSEN MN
1200 AM CDT MON MAY 30 2016


NOTE: "FAIR" INDICATES FEW OR NO CLOUDS BELOW 12,000 FEET WITH NO
SIGNIFICANT WEATHER AND/OR OBSTRUCTIONS TO VISIBILITY. N/A MEANS
CURRENT SKY AND/OR WEATHER CONDITIONS ARE NOT AVAILABLE.

MNZ060>063-068>070-300600-
   Twin Cities Metro

CITY           SKY/WX    TMP DP  RH WIND       PRES   REMARKS
TWIN CITIES    CLEAR     67  57  70 CALM      29.99R
ST PAUL        CLEAR     61  59  93 CALM      29.99R
CRYSTAL        CLEAR     60  57  89 CALM      29.97R
BLAINE         CLEAR     63  63 100 CALM      29.98S
EDEN PRAIRIE   CLEAR     65  58  78 SW3       29.98R
SOUTH ST PAUL  CLEAR     64  57  79 SW3       29.99R
LAKE ELMO      FOG       57  57 100 CALM      30.00R VSB 1
$$
MNZ001>005-007-008-013>017-022>024-027-028-300600-
   Northwest Minnesota

CITY           SKY/WX    TMP DP  RH WIND       PRES   REMARKS
BEMIDJI        CLEAR     49  48  97 CALM      29.94S
HALLOCK        CLEAR     55  54  94 S6        29.90S
ROSEAU         PTCLDY    55  50  82 CALM      29.91S
WARROAD        CLEAR     54  48  82 CALM      29.92S
THIEF RVR FALL CLEAR     55  50  82 CALM      29.94S
CROOKSTON      CLEAR     57  54  88 CALM      29.93S
FOSSTON        CLEAR     52  50  93 CALM      29.95S
DETROIT LAKES  CLEAR     55  52  88 CALM      29.97S
MOORHEAD       CLEAR     61  50  67 SE5       29.95R
PARK RAPIDS    CLEAR     54  51  90 CALM      29.96R
MAHNOMEN       FAIR      57  53  85 SE3       29.95R
$$
MNZ006-009>011-018-025>026-300600-
   North Central Minnesota

CITY           SKY/WX    TMP DP  RH WIND       PRES   REMARKS
BAUDETTE       CLEAR     52  48  86 CALM      29.91S
FLAG ISLAND    CLEAR     59  54  82 W5        29.88F
INTL FALLS     CLEAR     46  45  96 CALM      29.90R
WASKISH        CLEAR     59  54  82 CALM      29.92S
BIG FORK       CLEAR     50  48  93 CALM      29.93S FOG
LONGVILLE      CLEAR     50  50 100 CALM      29.95S
GRAND RAPIDS   CLEAR     50  49  96 SE3       29.96R
CRANE LAKE     PTCLDY    48  48 100 CALM      29.91S
ORR            CLEAR     54  50  87 CALM      29.89S
COOK           CLEAR     52  52 100 W3        29.92S
WALKER         FAIR      51  49  93 CALM      29.95S
$$
MNZ012-019>021-037-300600-
   Northeast Minnesota

CITY           SKY/WX    TMP DP  RH WIND       PRES   REMARKS
DULUTH         CLEAR     53  50  89 W9        29.93S
ELY            PTCLDY    54  52  94 CALM      29.90F
HIBBING        CLEAR     48  47  96 CALM      29.93S
EVELETH        CLEAR     52  50  93 CALM      29.94R
DULUTH HARBOR  CLEAR     59  55  88 SW7       29.93R
TWO HARBORS    CLEAR     57  52  82 W5        29.90S
SILVER BAY     PTCLDY    55  54  94 CALM      29.89S
GRAND MARAIS     N/A     45  42  89 CALM      29.87S
G MARAIS ARPRT CLEAR     54  48  82 W6        29.89F
$$
MNZ029>031-032-039>041-046>048-054>057-064-300600-
   West Central Minnesota

CITY           SKY/WX    TMP DP  RH WIND       PRES   REMARKS
FERGUS FALLS   CLEAR     63  46  55 SE5       29.94R
WHEATON        PTCLDY    63  46  55 S5        29.99R
MORRIS         CLEAR     57  46  67 S5        29.98R
ALEXANDRIA     CLEAR     56  50  80 CALM      30.00R
ELBOW LAKE     FAIR      61  47  60 E5        29.98S
WADENA         PTCLDY    54  48  82 CALM      29.97R
GLENWOOD       CLEAR     61  54  77 S3        30.00S
APPLETON       CLEAR     57  46  67 CALM      29.99R
BENSON         CLEAR     57  46  67 SW3       29.99R
ORTONVILLE     PTCLDY    63  46  55 CALM      29.99R
MADISON        CLEAR     61  48  63 SW6       30.00S
WILLMAR        FAIR      61  54  77 CALM      30.02R
$$
MNZ033>034-036-042>043-049>051-058-059-300600-
   Central Minnesota

CITY           SKY/WX    TMP DP  RH WIND       PRES   REMARKS
ST CLOUD       CLEAR     56  55  97 CALM      29.99R
SAUK CENTRE    FAIR      55  49  82 CALM      29.99S
PAYNESVILLE    CLEAR     55  53  92 CALM      30.00R
AITKIN         CLEAR     52  48  87 CALM      29.95S
PINE RIVER     CLEAR     52  52 100 CALM      29.99S
BRAINERD       CLEAR     50  50 100 S5        29.97S
STAPLES        CLEAR     54  52  94 S3        29.98R
LONG PRAIRIE   FAIR      54  52  94 CALM      30.00R
LITTLE FALLS   PTCLDY    54  52  94 CALM      29.99R
LITCHFIELD     CLEAR     59  55  88 CALM      30.01R
BUFFALO        CLEAR     59  55  86 CALM      30.00S
MAPLE LAKE     CLEAR     58  56  92 CALM      30.00S
HUTCHINSON     CLEAR     59  58  98 S3        30.02R FOG
$$
MNZ037-044-045-052-053-300600-
   East Central Minnesota

CITY           SKY/WX    TMP DP  RH WIND       PRES   REMARKS
PRINCETON      CLEAR     57  55  94 CALM      29.99S
MORA           PTCLDY    55  54  94 CALM      30.00S
CAMBRIDGE      CLEAR     61  52  72 CALM      29.97S
RUSH CITY      MOCLDY    56  54  94 CALM      29.99R
MOOSE LAKE     MOCLDY    52  50  93 SW5       29.95S
HINCKLEY       FAIR      52  52 100 CALM      29.97S
CLOQUET        CLEAR     57  52  82 W6        29.95S
MCGREGOR       CLEAR     55  52  88 SW3       29.96S
$$
MNZ071>073-080-081-089-090-097-098-300600-
   Southwest Minnesota

CITY           SKY/WX    TMP DP  RH WIND       PRES   REMARKS
MONTEVIDEO     CLEAR     61  48  63 CALM      30.02R
GRANITE FALLS  CLEAR     64  50  61 SW8       30.02R
CANBY          CLEAR     65  52  63 SW5       30.02S
MARSHALL       CLEAR     61  52  72 SW9       30.02R
REDWOOD FALLS  CLEAR     61  50  67 CALM      30.00R
OLIVIA         CLEAR     59  52  77 CALM      30.00R
PIPESTONE      CLEAR     64  48  55 CALM      30.04S
WINDOM         CLEAR     61  52  72 CALM      30.03S
WORTHINGTON    CLEAR     62  54  74 SW5       30.05S
JACKSON        CLEAR     61  52  72 CALM      30.04F
TRACY          CLEAR     63  54  72 SW6       30.03S
SLAYTON        CLEAR     61  51  70 SW6       30.05S
$$
MNZ065>067-074>077-082>085-091>093-300600-
   South Central Minnesota

CITY           SKY/WX    TMP DP  RH WIND       PRES   REMARKS
MANKATO        CLEAR     64  57  77 CALM      30.01S
NEW ULM        CLEAR     61  54  77 SW8       30.01S
ST JAMES       PTCLDY    57  48  72 SW5       30.02S
FAIRMONT       CLEAR     63  52  67 SW3       30.02F
GLENCOE        CLEAR     61  60  97 CALM      30.00R
FARIBAULT      CLEAR     59  57  94 CALM      30.01S
OWATONNA       CLEAR     61  57  88 CALM      30.02S
WASECA         CLEAR     59  55  88 CALM      30.04R
ALBERT LEA     CLEAR     63  54  72 CALM      30.03S
$$
MNZ078>079-086>088-094>096-300600-
   Southeast Minnesota

CITY           SKY/WX    TMP DP  RH WIND       PRES   REMARKS
ROCHESTER      CLEAR     63  59  87 W7        30.03R
RED WING       CLEAR     59  57  94 CALM      29.98S
STANTON        CLEAR     60  56  87 S6        29.99S
DODGE CENTER   CLEAR     61  57  88 W5        30.02S
WINONA         CLEAR     61  59  94 CALM      29.99S
AUSTIN         CLEAR     63  54  72 CALM      30.02S
PRESTON        CLEAR     62  57  85 SW5       30.03R
$$
ABBREVIATIONS USED IN REMARKS
   TC - TEMPERATURES IN CELSIUS
  WCI - WIND CHILL INDEX
   HX - HEAT INDEX
  VSB - VISIBILITY
$$



USA.gov is the U.S. government's official web portal to all federal, state and local government web resources and services.